GW3535 Weather Reports


time (UTC)temp
C
wind
direction
speed
KPH
gust
KPH
rain 1hr
cm
rain 24hr
cm
rain mn
cm
humidity
%
barometer
mb
20260505035723 10 189 0.0 0.0 0.00 0.13 0.13 82 1013.0
20260505035219 10 189 0.0 0.0 0.00 0.13 0.13 81 1013.1
20260505034716 10 189 0.0 0.0 0.00 0.13 0.13 82 1013.1
20260505034213 10 189 0.0 0.0 0.00 0.13 0.13 83 1013.1
20260505033709 10 189 0.0 0.0 0.00 0.13 0.13 83 1013.3
20260505033208 9 189 0.0 0.0 0.00 0.13 0.13 83 1013.1
20260505032705 9 189 0.0 0.0 0.00 0.13 0.13 83 1013.0
20260505032201 10 189 0.0 0.0 0.00 0.13 0.13 83 1012.9
20260505031658 10 189 0.0 0.0 0.00 0.13 0.13 82 1012.9
20260505031154 10 189 0.0 0.0 0.00 0.13 0.13 82 1012.8
20260505030651 10 189 0.0 0.0 0.00 0.13 0.13 81 1012.9
20260505030147 10 189 0.0 0.0 0.00 0.13 0.13 80 1012.7
20260505025643 10 189 0.0 0.0 0.00 0.13 0.13 79 1012.9
20260505025142 10 188 0.0 0.0 0.00 0.13 0.13 79 1012.7
20260505024639 10 188 0.0 0.0 0.00 0.13 0.13 81 1012.6
20260505024136 10 188 0.0 0.0 0.00 0.13 0.13 81 1012.7
20260505023634 10 188 0.0 0.0 0.00 0.13 0.13 81 1012.4
20260505023131 10 188 0.0 0.0 0.00 0.13 0.13 81 1012.3
20260505022628 10 188 0.0 0.0 0.00 0.13 0.13 82 1012.2
20260505022125 10 188 0.0 0.0 0.00 0.13 0.13 82 1012.2
20260505021622 10 188 0.0 1.6 0.00 0.13 0.13 81 1012.2
20260505021119 10 188 0.0 0.0 0.00 0.13 0.13 80 1012.2
20260505020614 10 188 0.0 0.0 0.00 0.13 0.13 80 1012.3
20260505020111 10 188 0.0 0.0 0.00 0.13 0.13 77 1012.2
20260505015608 11 188 0.0 0.0 0.00 0.13 0.13 76 1012.2
20260505015105 11 189 0.0 0.0 0.00 0.13 0.13 75 1012.2
20260505014601 11 191 0.0 0.0 0.00 0.13 0.13 72 1012.3
20260505014058 11 218 0.0 0.0 0.00 0.13 0.13 66 1012.4
20260505013555 10 187 6.4 6.4 0.00 0.13 0.13 72 1012.1
20260505013053 10 176 0.0 0.0 0.00 0.13 0.13 75 1012.4
20260505012551 11 178 0.0 3.2 0.00 0.13 0.13 74 1012.4
20260505012047 11 212 3.2 6.4 0.00 0.13 0.13 74 1012.1
20260505011543 11 237 6.4 9.7 0.00 0.13 0.13 73 1012.4
20260505011041 11 214 0.0 11.3 0.00 0.13 0.13 73 1012.2
20260505010536 11 232 6.4 11.3 0.00 0.13 0.13 74 1012.2
20260505010033 11 229 9.7 12.9 0.00 0.13 0.13 75 1012.1
20260505005529 11 242 3.2 12.9 0.00 0.13 0.13 75 1011.9
20260505005027 10 179 6.4 11.3 0.00 0.13 0.13 77 1012.0
20260505004523 10 263 3.2 9.7 0.00 0.13 0.13 78 1012.1
20260505004020 10 252 8.0 9.7 0.00 0.13 0.13 78 1012.1
20260505003517 10 209 6.4 14.5 0.00 0.13 0.13 76 1011.9
20260505003015 10 270 9.7 11.3 0.00 0.13 0.13 77 1012.0
20260505002509 11 192 0.0 9.7 0.13 0.13 0.13 76 1012.2
20260505002009 11 194 6.4 14.5 0.30 0.13 0.13 74 1012.2
20260505001506 11 209 0.0 0.0 0.18 0.10 0.10 74 1012.6
20260505001003 12 244 3.2 4.8 0.13 0.08 0.08 66 1012.3
20260505000500 12 215 3.2 9.7 0.13 0.08 0.08 64 1012.3
20260504235957 12 217 6.4 12.9 0.00 0.05 0.05 62 1012.2
20260504235454 12 254 6.4 14.5 0.00 0.05 0.05 58 1012.0
20260504234950 13 220 8.0 17.7 0.00 0.05 0.05 57 1011.7
20260504234448 14 227 6.4 11.3 0.00 0.05 0.05 52 1011.7
20260504233944 15 200 12.9 17.7 0.00 0.05 0.05 46 1011.5
20260504233440 15 199 0.0 3.2 0.00 0.05 0.05 44 1011.5
20260504232937 16 196 3.2 6.4 0.00 0.05 0.05 43 1011.4
20260504232434 16 290 0.0 0.0 0.00 0.05 0.05 42 1011.3
20260504231932 16 287 0.0 0.0 0.00 0.05 0.05 42 1011.0
20260504231427 16 270 0.0 0.0 0.00 0.05 0.05 42 1010.8
20260504230924 16 242 0.0 0.0 0.00 0.05 0.05 42 1010.7
20260504230421 16 19 0.0 0.0 0.00 0.05 0.05 42 1010.8
20260504225920 16 194 0.0 0.0 0.00 0.05 0.05 41 1010.6
20260504225416 16 218 0.0 0.0 0.00 0.05 0.05 41 1010.6
20260504224914 16 305 0.0 6.4 0.00 0.05 0.05 40 1010.5
20260504224410 17 189 4.8 6.4 0.00 0.05 0.05 39 1010.3
20260504223907 17 290 1.6 9.7 0.00 0.05 0.05 39 1010.3
20260504223403 17 92 0.0 1.6 0.00 0.05 0.05 40 1010.3
20260504222859 16 345 1.6 9.7 0.00 0.05 0.05 40 1010.5
20260504222356 16 231 1.6 3.2 0.00 0.05 0.05 42 1010.1
20260504221855 16 279 1.6 4.8 0.00 0.05 0.05 41 1010.3
20260504221351 16 301 1.6 4.8 0.00 0.05 0.05 41 1010.5
20260504220848 16 288 0.0 3.2 0.00 0.05 0.05 42 1010.5
20260504220344 16 285 0.0 6.4 0.00 0.05 0.05 42 1010.7
20260504215842 16 324 4.8 12.9 0.00 0.05 0.05 40 1010.7
20260504215338 16 243 1.6 4.8 0.00 0.05 0.05 42 1011.2
20260504214834 17 261 3.2 4.8 0.00 0.05 0.05 41 1010.9
20260504214331 16 327 3.2 11.3 0.00 0.05 0.05 42 1011.2
20260504213828 16 269 3.2 4.8 0.00 0.05 0.05 43 1011.3
20260504213324 16 343 0.0 4.8 0.00 0.05 0.05 44 1011.3
20260504212822 16 297 4.8 11.3 0.00 0.05 0.05 46 1011.3
20260504212317 16 251 3.2 6.4 0.00 0.05 0.05 49 1011.2
20260504211815 16 272 1.6 6.4 0.00 0.05 0.05 51 1011.4
20260504211311 15 209 0.0 1.6 0.00 0.05 0.05 55 1011.3
20260504210809 14 200 0.0 0.0 0.00 0.05 0.05 55 1011.0
20260504210306 13 196 0.0 0.0 0.00 0.05 0.05 61 1011.2
20260504205803 13 140 0.0 1.6 0.18 0.05 0.05 63 1011.3
20260504205301 13 176 1.6 1.6 0.18 0.05 0.05 61 1011.6
20260504204759 14 154 0.0 1.6 0.00 0.03 0.03 49 1012.0
20260504204256 15 208 1.6 6.4 0.00 0.03 0.03 49 1012.3
20260504203756 15 192 3.2 11.3 0.00 0.03 0.03 47 1012.4
20260504203252 15 200 1.6 3.2 0.00 0.03 0.03 49 1012.1
20260504202747 15 197 0.0 0.0 0.00 0.03 0.03 47 1012.3
20260504202245 15 105 3.2 9.7 0.00 0.03 0.03 45 1012.1
20260504201742 15 184 0.0 1.6 0.00 0.03 0.03 47 1012.2
20260504201239 15 69 1.6 1.6 0.00 0.03 0.03 48 1012.1
20260504200737 15 166 3.2 9.7 0.00 0.03 0.03 47 1012.0
20260504200232 14 165 0.0 1.6 0.00 0.03 0.03 52 1012.0
20260504195729 14 198 0.0 3.2 0.18 0.03 0.03 51 1011.9
20260504195225 13 52 3.2 9.7 0.18 0.03 0.03 52 1011.9
20260504194722 14 59 0.0 3.2 0.00 0.00 0.00 54 1011.7
20260504194218 15 70 3.2 6.4 0.00 0.00 0.00 48 1011.7
20260504193715 16 20 3.2 12.9 0.00 0.00 0.00 41 1011.7
20260504193212 16 325 3.2 12.9 0.00 0.00 0.00 35 1011.7
20260504192711 17 336 4.8 9.7 0.00 0.00 0.00 33 1011.4
20260504192208 18 241 0.0 3.2 0.00 0.00 0.00 32 1011.2
20260504191707 18 204 1.6 3.2 0.00 0.00 0.00 31 1010.7
20260504191203 18 196 0.0 0.0 0.00 0.00 0.00 31 1010.7
20260504190658 18 154 0.0 0.0 0.00 0.00 0.00 33 1010.6
20260504190155 18 131 0.0 0.0 0.00 0.00 0.00 34 1010.5
20260504185651 18 103 3.2 3.2 0.00 0.00 0.00 36 1010.5
20260504185148 20 297 9.7 17.7 0.00 0.00 0.00 26 1010.5
20260504184644 20 249 0.0 0.0 0.00 0.00 0.00 26 1010.2
20260504184139 20 206 3.2 16.1 0.00 0.00 0.00 25 1010.1
20260504183636 20 197 1.6 3.2 0.00 0.00 0.00 24 1009.9
20260504183134 20 209 0.0 6.4 0.00 0.00 0.00 22 1009.8
20260504182632 21 142 0.0 1.6 0.00 0.00 0.00 22 1009.8
20260504182129 20 177 1.6 3.2 0.00 0.00 0.00 23 1010.1
20260504181626 21 197 1.6 9.7 0.00 0.00 0.00 24 1010.1
20260504181123 21 173 1.6 3.2 0.00 0.00 0.00 23 1010.0
20260504180623 21 203 0.0 1.6 0.00 0.00 0.00 22 1010.0
20260504180121 21 228 0.0 9.7 0.00 0.00 0.00 22 1009.9
20260504175618 22 227 4.8 12.9 0.00 0.00 0.00 22 1010.0
20260504175114 21 180 0.0 3.2 0.00 0.00 0.00 23 1010.0
20260504174613 21 290 1.6 9.7 0.00 0.00 0.00 24 1010.1
20260504174109 22 207 6.4 11.3 0.00 0.00 0.00 22 1010.0
20260504173606 21 255 3.2 11.3 0.00 0.00 0.00 23 1010.3
20260504173104 21 267 9.7 12.9 0.00 0.00 0.00 23 1010.3
20260504172600 21 255 6.4 12.9 0.00 0.00 0.00 22 1010.1
20260504172056 21 238 3.2 9.7 0.00 0.00 0.00 22 1010.3
20260504171553 21 309 6.4 11.3 0.00 0.00 0.00 21 1010.5
20260504171050 21 349 9.7 20.9 0.00 0.00 0.00 22 1010.6
20260504170545 21 203 3.2 6.4 0.00 0.00 0.00 24 1010.6
20260504150930 17 124 0.0 0.0 0.00 0.00 0.00 37 1010.8
20260504150426 16 138 0.0 0.0 0.00 0.00 0.00 40 1010.9
20260504140853 12 172 0.0 0.0 0.00 0.00 0.00 49 1011.3
20260504140349 11 143 0.0 0.0 0.00 0.00 0.00 48 1011.4
20260504130818 7 195 0.0 0.0 0.00 0.00 0.00 64 1011.5
20260504130314 6 164 0.0 0.0 0.00 0.00 0.00 67 1011.2
20260504120237 4 164 0.0 0.0 0.00 0.00 0.00 71 1011.0
20260504110705 5 164 0.0 0.0 0.00 0.00 0.00 68 1011.4
20260504110201 5 163 0.0 0.0 0.00 0.00 0.00 69 1011.2
20260504100125 5 163 0.0 0.0 0.00 0.00 0.00 66 1011.5
20260504081518 7 164 0.0 0.0 0.00 0.00 0.00 56 1012.7
20260504081014 7 164 0.0 0.0 0.00 0.00 0.00 56 1012.7
20260504080510 7 164 0.0 0.0 0.00 0.00 0.00 55 1012.7
20260504050312 12 162 0.0 0.0 0.00 0.00 0.00 38 1013.8
20260504045808 12 149 0.0 0.0 0.00 0.00 0.00 37 1013.8
20260504045304 13 190 0.0 0.0 0.00 0.00 0.00 37 1014.1
20260504044800 13 144 0.0 0.0 0.00 0.00 0.00 36 1013.8
20260504044258 13 173 0.0 0.0 0.00 0.00 0.00 36 1013.7
20260504043755 14 215 0.0 0.0 0.00 0.00 0.00 35 1014.0
20260504043251 14 181 0.0 0.0 0.00 0.00 0.00 35 1014.1
20260504042750 14 180 0.0 0.0 0.00 0.00 0.00 35 1013.8
20260504042245 14 181 0.0 0.0 0.00 0.00 0.00 34 1013.7
20260504041742 15 196 0.0 0.0 0.00 0.00 0.00 33 1014.0
20260504041238 15 198 0.0 0.0 0.00 0.00 0.00 32 1014.0
20260504040734 15 156 0.0 0.0 0.00 0.00 0.00 31 1014.0
20260504040232 15 202 0.0 1.6 0.00 0.00 0.00 31 1014.2